Dauntless Aviation
Greetings, Guest! To participate, [sign up for a free account] or [log in]
Airports Europe United Kingdom
EGPY

Dounreay Thurso

UNITED KINGDOM

Airport Info
Edit

Location

Latitude / Longitude: 58°35'3"N / 3°43'31"W
  58°35.052'N / 3°43.518'W
  58.5842 / -3.7253

Runway Information

Runway 04 /22

Dimensions: 3300 x 100 ft.
Surface: U
 
Runway 04
Runway 22
Latitude: 58.579444 58.586944
Longitude: -3.731389 -3.721667
Elevation: 130 ft. 130 ft.
Runway true heading: 33.4 213.4
 
Satellite photo at:
Airport distance calculator
From:
Weather Reports

METAR

EGPC
22.2nm E
EGPC 292150Z AUTO 27008KT 9999 SCT039/// 05/02 Q1002
EGPA
34.2nm NE
EGPA 292150Z AUTO 27013KT 9999 SCT025/// SCT030/// 07/05 Q1000

TAF

EGPC
22.2nm E
TAF EGPC 291956Z 2921/3006 28012KT 9999 SCT035 TEMPO 2922/3002 30015G25KT 7000 SHRA BKN014 PROB30 TEMPO 3002/3006 31015G25KT
EGPA
34.2nm NE
TAF EGPA 291956Z 2921/3006 28012KT 9999 SCT040 TEMPO 2921/3001 29015G25KT 7000 SHRA BKN014 PROB30 TEMPO 3001/3005 29015G25KT BECMG 3002/3005 34010KT
Safelog

 

Dauntless Aviation

© 2007-2015 Dauntless Aviation, all rights reserved
Information provided via PilotNav comes from a variety of official and unofficial data sources. As errors are possible, do not use PilotNav for primary flight planning purposes. Verify any information that you receive via PilotNav with current and canonical charts and other official documents. The material in this database is subject to database copyrights held by Dauntless Aviation and may not be copied without the express permission of Dauntless Aviation - licenses for use of part of all of this data are available for purchase; enquire via the Dauntless Aviation helpdesk. A number of mechanisms and markers exist in the database to protect against and identify infringement / copyright. Automated queries against this website are stictly prohibited, and all activity is logged and analyzed.